Starlink 31809

operational
NORAD ID: 59743 Int'l Des: 2024-090 Owner: SPXS Country: US Constellation: starlink
LEOCIRCULAR

Starlink 31809について

説明を読み込み中...

リアルタイム位置

3D地球を読み込み中...

次回通過

高度履歴

Altitude vs Time

uPlot chart will show altitude changes over time

軌道要素

1 59743U 24090P 25258.20971594 .00002722 00000-0 10844-3 0 9995
2 59743 43.0003 87.5118 0000974 273.8105 86.2635 15.27569951 76683
Epoch: Sep 15, 2025 • Age: 34 hours

現在のステータス

高度 489.0 km
速度 7.62 km/s
衛星直下点 -25.37°S, 69.98°E
打ち上げ日 May 13, 2024
運用期間 1.3 years
タイプ internet

技術仕様

分類 Payload
質量 730.00 kg
乾燥質量 700.00 kg
総質量 730.00 kg
長さ 0.30 m
直径 4.10 m
スパン 29.00 m
形状 Box + pan
製造者 SPXS
バスタイプ Starlink V2M
フェーズステータス In Orbit
所有者/国 SPXS/US

大規模コンステレーション

Loading constellations...